www.pogodaiklimat.ru

Погода и климат >> Архив погоды >> Россия >> Ямало-Ненецкий АО >> Пангоды


ПОГОДА в Пангодах

  • Прогноз погоды в Пангодах
  • Монитор погоды в Пангодах

АРХИВ ПОГОДЫ в Пангодах

Время (UTC), дата Ветер
(напр.,м/с)
 
Видим.   Явления Облачность Т
(С)
Тd
(С)
f
(%)
Тe
(С)
Тes
(С)
Комфортность P
(гПа)
Po
(гПа)
Тmin
(С)
Tmax
(С)
R
(мм)
R24
(мм)
S
(см)
12 11.06 Ю 2 50 км 10/8
[Cb cap As op]
+7.0 -0.6 58 +5 +5 1007.2 1000.9
15 11.06 Ю 2 50 км 10/6 300 м
[Cb cap Ac As]
+6.7 +1.6 70 +5 +5 1006.2 999.9 +7.1
18 11.06 ЮВ 1 10 км слаб. ливневой дождь 10/8 300 м
[Cb cap Ac As]
+4.3 +4.3 100 +3 +3 1005.0 998.6
21 11.06 ЮЗ 1 20 км в посл. час ливневой дождь 10/10 300 м
[Cb cap]
+3.9 +3.9 100 +2 +2 1003.0 996.6
00 12.06 Ю 1 4000 м дымка {ливн. осадки, дождь} 10/10 200 м
[St]
+4.4 +4.4 100 +3 +3 1001.7 995.3
03 12.06 ЮЗ 1 1000 м слаб. морось {туман} 10/10 100 м
[St]
+5.5 +5.5 100 +4 +4 1000.6 994.3 +3.9 1
06 12.06 ЮЗ 1 10 км {морось, туман} 10/10 100 м
[St]
+8.0 +6.8 92 +7 +7 999.3 993.0
09 12.06 штиль 0 10 км слаб. ливневой дождь {морось} 10/10 200 м
[Cb cap]
+8.6 +7.1 90 +8 +8 999.2 993.0
12 12.06 СВ 2 10 км слаб. ливневой дождь {морось} 9/9 200 м
[Cb cap]
+9.8 +6.3 79 +8 +9 998.5 992.3
15 12.06 В 1 20 км в посл. час ливневой дождь 10/8 300 м
[Cb cap Ac As]
+9.1 +7.1 87 +8 +8 997.4 991.2 +10.4 0.8
18 12.06 С 2 20 км в посл. час ливневой дождь 10/6 300 м
[Cb cap Ac As]
+5.5 +4.2 91 +3 +3 996.2 989.9
21 12.06 С 3 4000 м слаб. дождь 10/3 300 м
[Frnb As op]
+2.8 +2.5 98 -2 -2 994.6 988.3
00 13.06 С 3
{10}
4000 м слаб. ливневой снег 10/10 300 м
[Cb cap]
+2.8 +2.5 98 -2 -2 994.6 986.4
03 13.06 С 3 1000 м ливневой снег 10/10 300 м
[Cb cap]
+0.3 +0.3 100 -5 -5 991.6 985.2 +0.1 7
06 13.06 С 4
{10}
20 км в посл. час ливневой снег 9/9 300 м
[Cb cap]
+2.3 +0.7 89 -3 -2 990.8 984.5
09 13.06 С 4
{11}
20 км в посл. час ливневой снег 10/8 300 м
[Cb cap As trans]
+2.6 -0.4 81 -2 -2 991.5 985.1
12 13.06 СЗ 4-10
{11}
50 км {ливн. осадки} 9/9 300 м
[Cb cap]
+3.4 -2.1 67 -1 -1 992.1 985.8
15 13.06 СЗ 4 50 км 10/6 300 м
[Cb cap Ac trans Ci fib]
+3.3 -2.5 66 -1 -1 991.8 985.5 +3.7 1
18 13.06 СЗ 3 50 км 10/8 300 м
[Cb cap Ac trans]
+0.7 -0.3 93 -4 -4 991.7 985.3
21 13.06 СЗ 4 50 км {ливн. осадки} 10/10 300 м
[Cb cap]
+0.2 -1.9 86 -5 -5 990.9 984.5
00 14.06 З 5-11
{11}
50 км {ливн. осадки} 10/10 300 м
[Cb cap]
-0.0 -2.1 86 -6 -6 989.9 983.5
03 14.06 З 5
{11}
1000 м ливневой снег 10/10 300 м
[Cb cap]
+0.4 -0.7 92 -6 -6 989.1 982.7 -0.3 0.3
06 14.06 З 5-10
{11}
1000 м ливневой снег 10/10 600 м
[Cb cap]
+0.3 +0.3 100 -6 -6 988.7 982.3
09 14.06 ЮЗ 4
{10}
1000 м ливневой снег 10/10 300 м
[Cb cap]
+0.3 +0.3 100 -5 -5 988.9 982.5
12 14.06 СЗ 4
{10}
4000 м 10/10 300 м
[Cb cap]
+0.6 +0.6 100 -5 -5 991.1 984.7
15 14.06 СЗ 4
{10}
1000 м ливневой снег 10/10 300 м
[Cb cap]
+0.5 +0.5 100 -5 -5 993.9 987.5 +0.8 13
18 14.06 СЗ 4
{12}
50 км {ливн. осадки} 10/10 300 м
[Cb cap]
+0.6 +0.6 100 -5 -5 995.7 989.3
21 14.06 З 4 20 км {ливн. осадки} 10/10 300 м
[Cb cap]
+0.2 -0.2 97 -5 -5 997.5 991.0
00 15.06 СЗ 3 50 км {ливн. осадки} 6/3 300 м
[Cu hum Ci fib]
+2.0 -0.2 85 -2 -1 998.9 992.5
03 15.06 З 3 50 км 9/9 300 м
[Cb cap]
+4.2 -0.2 73 +1 +1 1000.6 994.2 +0.2 0.7 <0.5
06 15.06 З 5 10 км слаб. ливневой дождь 9/9 300 м
[Cb cap]
+6.3 +1.5 71 +2 +3 1001.5 995.2
09 15.06 ЮЗ 3 50 км {ливн. осадки} 8/8 300 м
[Cb cap Ci fib]
+9.4 +1.4 57 +7 +9 1001.9 995.6
12 15.06 З 3 50 км {ливн. осадки} 8/8 600 м
[Cb cap]
+10.6 +1.0 51 +9 +10 1002.2 996.0
15 15.06 ЮЗ 3 50 км {ливн. осадки} 10/6 300 м
[Cb cap Ac As]
+8.4 +3.0 69 +6 +6 1002.7 996.4 +11.0 0.3
18 15.06 ЮЗ 4 50 км {ливн. осадки} 10/8 300 м
[Cb cap Ac As]
+6.6 +3.8 82 +3 +3 1002.8 996.5
21 15.06 Ю 2 50 км {ливн. осадки} 10/8 300 м
[Cb cap Ac As]
+5.3 +4.5 95 +3 +3 1002.2 995.8
00 16.06 Ю 3 50 км {ливн. осадки} 8/5 300 м
[Cb cap Ac cuf]
+7.0 +4.1 82 +4 +4 1001.9 995.6
03 16.06 Ю 5
{10}
50 км 10/6 600 м
[Sc Cs]
+11.1 +3.6 60 +9 +10 1001.2 995.0 +5.2 0.0
06 16.06 Ю 4-10
{12}
50 км в посл. час ливневой дождь 10/8 300 м
[Cb cap Cc]
+10.4 +5.5 72 +8 +9 1001.0 994.8
09 16.06 ЮЗ 4
{12}
50 км {ливн. осадки, метель} 9/9 600 м
[Cb cap]
+13.1 +2.9 50 +12 +12 1000.2 994.0
12 16.06 Ю 5
{12}
50 км {ливн. осадки, метель} 9/6 300 м
[Cb cap Ac cuf Ci fib]
+11.0 +5.5 69 +8 +9 1000.6 994.4
15 16.06 Ю 4
{10}
50 км 9/6 300 м
[Cb calv Ac cuf Ci fib]
+11.8 +4.0 59 +10 +10 1000.4 994.2 +14.9 0.0
18 16.06 Ю 2 н/о н/о +8.3 +5.3 81 +6 +6 1000.5 994.2
21 16.06 ЮВ 2 50 км 9/4 600 м
[Sc Ac cast Ci fib]
+4.7 +4.4 98 +2 +2 999.2 992.9
00 17.06 ЮВ 2 10 км слаб. ливневой дождь 10/10 300 м
[Cb cap]
+6.6 +6.5 99 +4 +4 998.0 991.7
03 17.06 ЮЗ 3 50 км {ливн. осадки} 10/10 300 м
[Cb cap]
+9.4 +8.1 92 +7 +7 997.6 991.4 +4.7 1
06 17.06 Ю 3 4000 м слаб. ливневой дождь 10/10 300 м
[Cb cap]
+9.9 +9.5 97 +7 +7 997.4 991.2
09 17.06 ЮЗ 2 50 км {ливн. осадки} 9/9 300 м
[Cb cap]
+13.5 +8.8 73 +13 +14 997.6 991.5
12 17.06 З 3 50 км {ливн. осадки} 8/8 300 м
[Cb cap]
+14.8 +4.7 51 +14 +15 998.0 991.9
15 17.06 Ю 3 20 км в посл. час ливневой дождь 10/8 300 м
[Cb cap Ac cuf]
+12.9 +8.1 73 +12 +12 998.5 992.3 +15.6 3
18 17.06 СВ 1 50 км в посл. час ливневой дождь 10/6 300 м
[Cb cap Ac cuf]
+9.5 +9.5 100 +9 +9 997.6 991.4
21 17.06 С 1 50 км {ливн. осадки} 10/8 300 м
[Cb cap Ac cuf]
+8.3 +7.4 94 +7 +7 996.8 990.6
00 18.06 СЗ 1 50 км {ливн. осадки} 10/10 300 м
[Cb cap]
+7.7 +6.0 89 +7 +7 996.6 990.3
03 18.06 С 1 50 км 10/8 300 м
[Cb cap Ac cuf]
+9.7 +4.8 71 +9 +10 996.5 990.3 +7.5 0.3

 

Местоположение метеостанции Пангоды (Ямало-Ненецкий АО, Россия): широта 65.83 долгота 74.50 высота над уровнем моря 52 м.

В архиве по умолчанию представлена погода в Пангодах за последнюю неделю. Архивные данные за месяц целиком и за предыдущие месяцы, начиная с января 2011 года, Вы можете получить, выбрав интересующий диапазон дат из раскрывающегося списка и нажав кнопку "Ввод!".


*Определитесь, кто Вы:
робот инопланетянин человек

Внимание! Время в таблицах - всемирное. Для получения местного времени необходимо прибавить поправку, которая равна 5 ч.

Смотрите также архив погоды в соседних городах и на ближайших метеорологических станциях:

Погода в Надыме (Ямало-Ненецкий АО, Россия) (93 км)
Погода в Новом Уренгое (Ямало-Ненецкий АО, Россия) (108 км)
Погода в Ныде (Ямало-Ненецкий АО, Россия) (113 км)
Погода в Уренгое (Ямало-Ненецкий АО, Россия) (178 км)
Погода в Тарко-Сале (Ямало-Ненецкий АО, Россия) (184 км)
Погода в Лонг-Югане (Ямало-Ненецкий АО, Россия) (203 км)
Погода в Новом Порте (Ямало-Ненецкий АО, Россия) (218 км)
Погода в Тазовском (Ямало-Ненецкий АО, Россия) (261 км)
Погода в Полуе (Ямало-Ненецкий АО, Россия) (265 км)
Погода в Ноябрьске (Ямало-Ненецкий АО, Россия) (304 км)

Пояснения к столбцам:

Ветер - указаны скорость ветра в м/с - средняя за 10 мин, порывы в срок и между сроками (в фигурных скобках) и направление, откуда дует ветер: С - северный, СВ - северо-восточный, В - восточный, ЮВ - юго-восточный, Ю - южный, ЮЗ - юго-западный, З - западный, СЗ - северо-западный.
Видимость - горизонтальная дальность видимости в метрах или километрах. При видимости от 1 до 10 км при отсутствии осадков обычно наблюдается дымка, при ухудшении видимости до 1 км и менее - туман. В сухую погоду видимость может ухудшаться дымом, пылью или мглою.
Явления - указаны атмосферные явления, наблюдавшиеся в срок или в последний час перед сроком; фигурными скобками обозначены явления, наблюдавшиеся между сроками (за 1-3 часа до срока); квадратными скобками обозначены град или гололедные отложения с указанием их диаметра в мм.
Облачность - указаны через наклонную черту общая и нижняя облачность в баллах и высота нижней границы облаков в метрах; квадратными скобками обозначены формы облаков: Ci - перистые, Cs - перисто-слоистые, Cc - перисто-кучевые, Ac - высококучевые, As - высокослоистые, Sc - слоисто-кучевые, Ns - слоисто-дождевые, Cu - кучевые, Cb - кучево-дождевые. Подробнее классификацию облаков см. в Атласе облаков (PDF).
T - Температура воздуха - температура, измеренная на высоте 2 м над землей.
Td - Температура точки росы - температура, при понижении до которой содержащийся в воздухе водяной пар достигнет насыщения.
f - Относительная влажность воздуха - влажноcть воздуха, измеренная на высоте 2 м над землей.
Te - Эффективная температура - температура, которую ощущает одетый по сезону человек в тени. Характеристика душности погоды. При расчете учитывается влияние влажности воздуха и скорости ветра на теплоощущения человека.
Tes - Эффективная температура на солнце - температура, которую ощущает человек, с поправкой на солнечный нагрев. Характеристика знойности погоды. Зависит от высоты солнца над горизонтом, облачности и скорости ветра. Ночью, в пасмурную погоду, а также при ветре 12 м/с и более поправка равна нулю.
P - Атмосферное давление - приведенное к уровню моря атмосферное давление.
Po - Атмосферное давление - измеренное на уровне метеостанции атмосферное давление.
Tmin - Минимальная температура - минимум температуры воздуха на высоте 2 м над землей.
Tmax - Максимальная температура - максимум температуры воздуха на высоте 2 м над землей.
R - Количество осадков - Количество выпавших осадков за период времени, мм. При наведении курсора мыши на число - период времени, за который выпало указанное количество осадков.
R24 - Количество осадков - Количество выпавших осадков за 24 часа, мм.
S - Снежный покров - Высота снежного покрова, см. При наведении курсора мыши на число - состояние снежного покрова и степень покрытия местности в баллах.